Weather History for KNGP - October, 2013

Change the Weather History Date:

Thursday, October 17, 2013

  Actual Average Record
Temperature  
Mean Temperature 72 °F -  
Max Temperature 78 °F 80 °F 92 °F (2006)
Min Temperature 66 °F 66 °F 57 °F (2002)
Cooling Degree Days 6    
Growing Degree Days 22 (Base 50)    
Moisture  
Dew Point 61 °F    
Average Humidity 75    
Maximum Humidity 87    
Minimum Humidity 56    
Precipitation  
Precipitation 0.00 in - - ()
Sea Level Pressure  
Sea Level Pressure 30.01 in    
Wind  
Wind Speed 13 mph (NNE)    
Max Wind Speed 17 mph    
Max Gust Speed -    
Visibility 10 miles    
Events      
Averages and records for this station are not official NWS values.
T = Trace of Precipitation, MM = Missing Value Source: NWS Daily Summary

Daily Weather History Graph

Daily Weather History Graph

Search for Another Location

Airport or City:

Trip Planner

Search our weather history database for the weather conditions in past years. The results will help you decide how hot, cold, wet, or windy it might be!

Date:

Astronomy

Oct. 17, 2013 Rise Set
Actual Time 7:30 AM CDT 6:57 PM CDT
Civil Twilight 7:06 AM CDT 7:21 PM CDT
Nautical Twilight 6:39 AM CDT 7:48 PM CDT
Astronomical Twilight 6:12 AM CDT 8:15 PM CDT
Moon 6:09 PM CDT (10/17) 6:09 AM CDT (10/17)
Length of Visible Light 12h 14m
Length of Day
11h 27m
Waxing Gibbous, 98% of the Moon is Illuminated
Oct 17
Waxing Gibbous
Oct 18
Full
Oct 26
Last Quarter
Nov 3
New
Nov 9
First Quarter

Hourly Weather History & Observations

Time (CDT) Temp. Dew Point Humidity Pressure Visibility Wind Dir Wind Speed Gust Speed Precip Events Conditions
12:07 AM 66.0 °F 62.1 °F 87% 30.04 in 10.0 mi North 15.0 mph - N/A   Overcast
12:56 AM 66.0 °F 61.0 °F 84% 30.03 in 10.0 mi North 10.4 mph - N/A   Overcast
1:56 AM 66.0 °F 61.0 °F 84% 30.02 in 10.0 mi North 12.7 mph - N/A   Overcast
2:56 AM 66.0 °F 61.0 °F 84% 30.01 in 10.0 mi North 15.0 mph - N/A   Overcast
3:46 AM 66.0 °F 61.0 °F 84% 30.00 in 10.0 mi North 13.8 mph - N/A   Overcast
3:56 AM 66.0 °F 62.1 °F 87% 30.00 in 10.0 mi North 16.1 mph - N/A   Overcast
4:09 AM 66.0 °F 62.1 °F 87% 29.99 in 10.0 mi North 13.8 mph - N/A   Overcast
4:17 AM 66.0 °F 62.1 °F 87% 29.99 in 10.0 mi North 16.1 mph - N/A   Overcast
4:51 AM 66.2 °F 60.8 °F 83% 30.00 in 10.0 mi North 15.0 mph - N/A   Overcast
4:56 AM 66.0 °F 62.1 °F 87% 30.00 in 10.0 mi North 12.7 mph - N/A   Overcast
5:14 AM 66.0 °F 61.0 °F 84% 30.01 in 10.0 mi North 12.7 mph - N/A   Overcast
5:40 AM 66.0 °F 61.0 °F 84% 30.01 in 10.0 mi North 17.3 mph - N/A   Overcast
5:56 AM 66.0 °F 61.0 °F 84% 30.01 in 10.0 mi North 15.0 mph - N/A   Overcast
6:09 AM 66.0 °F 61.0 °F 84% 30.01 in 10.0 mi North 16.1 mph - N/A   Overcast
6:49 AM 66.0 °F 60.1 °F 81% 30.02 in 10.0 mi North 16.1 mph - N/A   Overcast
6:56 AM 66.0 °F 60.1 °F 81% 30.02 in 10.0 mi North 16.1 mph - N/A   Overcast
7:30 AM 66.0 °F 59.0 °F 78% 30.04 in 10.0 mi North 15.0 mph - N/A   Overcast
7:56 AM 66.0 °F 57.9 °F 75% 30.05 in 10.0 mi NNE 15.0 mph - N/A   Overcast
8:56 AM 66.9 °F 57.0 °F 70% 30.06 in 10.0 mi NNE 15.0 mph - N/A   Mostly Cloudy
9:56 AM 66.9 °F 55.9 °F 68% 30.08 in 10.0 mi NNE 16.1 mph - N/A   Mostly Cloudy
10:56 AM 66.9 °F 55.9 °F 68% 30.09 in 10.0 mi NNE 12.7 mph - N/A   Mostly Cloudy
11:56 AM 70.0 °F 57.9 °F 65% 30.08 in 10.0 mi NNE 11.5 mph - N/A   Mostly Cloudy
12:56 PM 71.1 °F 57.9 °F 63% 30.05 in 10.0 mi NNE 11.5 mph - N/A   Mostly Cloudy
1:56 PM 73.0 °F 57.9 °F 59% 30.01 in 10.0 mi NNE 6.9 mph - N/A   Mostly Cloudy
2:56 PM 75.0 °F 60.1 °F 60% 29.99 in 10.0 mi NE 9.2 mph - N/A   Mostly Cloudy
3:56 PM 77.0 °F 60.1 °F 56% 29.97 in 10.0 mi NE 9.2 mph - N/A   Mostly Cloudy
4:56 PM 77.0 °F 61.0 °F 58% 29.96 in 10.0 mi NE 10.4 mph - N/A   Mostly Cloudy
5:56 PM 75.9 °F 61.0 °F 60% 29.95 in 10.0 mi ENE 11.5 mph - N/A   Scattered Clouds
6:56 PM 73.9 °F 62.1 °F 66% 29.95 in 10.0 mi East 8.1 mph - N/A   Scattered Clouds
7:56 PM 73.9 °F 63.0 °F 68% 29.96 in 10.0 mi East 10.4 mph - N/A   Mostly Cloudy
8:56 PM 73.9 °F 63.0 °F 68% 29.98 in 10.0 mi East 9.2 mph - N/A   Mostly Cloudy
9:56 PM 73.9 °F 64.0 °F 71% 29.99 in 10.0 mi East 6.9 mph - N/A   Mostly Cloudy
10:56 PM 73.9 °F 64.9 °F 73% 29.97 in 10.0 mi East 9.2 mph - N/A   Scattered Clouds
11:56 PM 73.9 °F 66.0 °F 76% 29.97 in 10.0 mi East 6.9 mph - N/A   Scattered Clouds